Regional Weather Roundup
Issued by NWS Charleston, SC

Current Version | Previous Version | Graphics & Text | Print | Product List | Glossary On
Versions: 1 2 3 4 5 6 7 8 9 10 11 12 13 14 15 16 17 18 19 20 21 22 23 24 25 26 27 28 29 30 31 32 33 34 35 36 37 38 39 40 41 42 43 44 45 46 47 48 49 50
000
ASUS42 KCHS 171710
RWRCHS
REGIONAL WEATHER ROUNDUP
NATIONAL WEATHER SERVICE CHARLESTON SC
1200 PM EST WED DEC 17 2014

NOTE: "FAIR" INDICATES FEW OR NO CLOUDS BELOW 12,000 FEET WITH NO
SIGNIFICANT WEATHER AND/OR OBSTRUCTIONS TO VISIBILITY.

NOT ALL STATIONS ARE QUALITY CONTROLLED BY THE NATIONAL
WEATHER SERVICE. USE DATA WITH CAUTION...ESPECIALLY
DEWPOINT OBSERVATIONS.

SCZ027-030-031-034>040-042>050-171800-
...SOUTHEAST SOUTH CAROLINA...

CITY           SKY/WX    TMP DP  RH WIND       PRES   REMARKS
N CHARLESTON   MOSUNNY   61  40  45 VRB3      30.13F
WATERFRONT PRK   N/A     59 N/A N/A CALM        N/A
MOUNT PLEASANT FAIR      61  43  51 CALM      30.13F
PINOPOLIS        N/A     55  45  67 MISG      30.06F
MONCKS CORNER  FAIR      59  43  55 CALM      30.13F
SUMMERVILLE    FAIR      59  43  55 CALM      30.14F
BEAUFORT MCAS  MOSUNNY   61  40  45 N3        30.15F
BEAUFORT ARPT  FAIR      59  45  58 CALM      30.14F
HILTON HEAD IS SUNNY     57  43  58 N5        30.16F
WALTERBORO     MOSUNNY   59  37  44 CALM      30.14F
ALLENDALE      FAIR      57  41  54 CALM      30.14F

...SOUTHERN MIDLANDS AND PEE DEE...

CITY           SKY/WX    TMP DP  RH WIND       PRES   REMARKS
GEORGETOWN     NOT AVBL
KINGSTREE      NOT AVBL
ORANGEBURG     MOSUNNY   58  39  49 W3        30.14F
BARNWELL       FAIR      59  39  47 CALM      30.15F
AIKEN          FAIR      55  41  58 W3        30.17F
MANNING        NOT AVBL
COLUMBIA       MOSUNNY   59  39  47 VRB5      30.14F
SUMTER         SUNNY     58  38  47 NW2       30.11F
FLORENCE       SUNNY     60  39  45 N6        30.12F
MYRTLE BEACH   SUNNY     59  39  47 NW6       30.13
N MYRTLE BEACH MOSUNNY   60  39  45 NW7       30.11F

$$

GAZ063-065-086>088-099>101-113>116-118-119-134>141-150-171800-
...SOUTHEAST GEORGIA...

CITY           SKY/WX    TMP DP  RH WIND       PRES   REMARKS
SAVANNAH ARPT  PTSUNNY   60  40  47 CALM      30.16F
HUNTER AAF     SUNNY     59  41  51 VRB2      30.14F
FORT STEWART   SUNNY     58  40  51 VRB1      30.15F
STATESBORO     SUNNY     57  42  56 N3        30.15F
SYLVANIA       SUNNY     62  44  52 CALM      30.16F
CLAXTON        FAIR     N/A N/A N/A CALM      30.17F

...CSRA...CENTRAL AND FAR SOUTHEAST GEORGIA...

CITY           SKY/WX    TMP DP  RH WIND       PRES   REMARKS
THOMSON        SUNNY     56  43  61 NW3       30.20F
AUGUSTA-BUSH   SUNNY     56  39  53 CALM      30.16F
AUGUSTA-DANIEL SUNNY     55  39  54 CALM      30.16F
SWAINSBORO     FAIR      57  45  62 NW7       30.17F
VIDALIA        SUNNY     55  43  62 W5        30.17F
EASTMAN        FAIR      57  42  56 W5        30.20F
HAZLEHURST     FAIR      58  43  56 CALM      30.16F
ALMA           SUNNY     57  39  51 W5        30.17F
WAYCROSS       SUNNY     60  44  55 NW5       30.18F
JESUP          FAIR      61  45  55 W6        30.17F
BAXLEY         FAIR      59  41  51 W5        30.17F
BRUNSWICK      SUNNY     61  41  48 W7        30.18F
SAINT SIMONS   SUNNY     58  41  53 SW7       30.17F

$$

SCZ027-028-034-036>038-045-046-048>050-GAZ119-141-171800-
...LAKE AND SUPPLEMENTAL COASTAL OBSERVATIONS...

STATION/POSITION TIME  TEMP    WIND        PRES    WAVE   SWELL
                       AIR SEA DIR/SP/G            HT/PER HT/PER/DIR
                 (UTC) (F)     (DEG/KT/KT) (MB)    (FT/S) (FT/S/D)
UPR LAKE MARION  NOT AVBL
WINYAH BAY       NOT AVBL
LAKE MURRAY      1600   53     210/  3/  6 1020.7F
ACE BASIN NERRS  1600   57     340/  2     1021.0S
FORT PULASKI     1700   55 56  260/  5/  6 1021.5F
SAPELO ISLAND    1600   54     240/  5     1022.0S

$$

ANZ835-935-AMZ111-154-330-350-352-354-370-450-454-472-171800-
...C-MAN AND BUOY OBSERVATIONS...

STATION/POSITION TIME  TEMP    WIND        PRES    WAVE   SWELL
                       AIR SEA DIR/SP/G            HT/PER HT/PER/DIR
                 (UTC) (F)     (DEG/KT/KT) (MB)    (FT/S) (FT/S/D)
BUOY 41004       1700   59 73   10/  8/ 10 1020.0F   3/ 4   2/ 6
BUOY 41008       1700   51 58  290/  4/  6 1021.7F   2/11   2/120/11
FOLLY BEACH CMAN 1700   59      60/  2/  3 1020.8F
CAPERS NEARSHORE 1600   56      10/  4/  6   N/A
FRIPP NEARSHORE  NOT AVBL


STATION/POSITION TIME  TEMP    WIND        PRES    WAVE   SWELL
                       AIR SEA DIR/SP/G            HT/PER HT/PER/DIR
                 (UTC) (F)     (DEG/KT/KT) (MB)    (FT/S) (FT/S/D)
5E ST. MARYS GA  1700      61                N/A     2/11
FRYING PAN BUOY  1700   55 64  350/ 10/ 12 1020.1F   3/ 6   2/200/ 6
BUOY 41025       1700   53                 1017.7F   4/ 8
CAPE LOOKOUT NC  1700   56     330/  6/  7 1017.7F
BUOY 41002       1633   68 73  320/ 12/ 17 1018.4F   8/ 8   7/280/ 8
BUOY 41010       1700   72 76  290/ 14/ 17 1020.9F   5/ 6   2/ 90/11
ST AUGUSTINE FL  1700   57      40/  6/  8 1022.1F


$$


USA.gov is the U.S. government's official web portal to all federal, state and local government web resources and services.